Location: Newark
(51.3318°N, 0.0053°E)
Time: 11:26:50
(UTC+00:00)

MOZHAYETS 4 - Pass Details

Date: 05 July 2022
Orbit: 660 x 679 km, 98.2° (Epoch: 10 August)

Event Time Altitude Azimuth Distance (km) Brightness Sun altitude
Exits shadow 01:33:24 - 145° (SE) 2,776 10.6 -13.3°
Reaches altitude 10° 01:35:06 10° 140° (SE) 2,106 10.0 -13.2°
Maximum altitude 01:39:29 46° 68° (ENE) 908 8.7 -13.0°
Drops below altitude 10° 01:43:53 10° 356° (N) 2,110 11.3 -12.7°
Sets 01:46:10 0° 350° (N) 3,025 12.1 -12.6°
